Dodge City, KS

5:36 AM CST on January 16, 2017 (GMT -0600)
Dodge City Regional

Weather History for KDDC - October, 2012

Change the Weather History Date:

Monday, October 22, 2012

  Actual Average Record
Temperature  
Mean Temperature 54 °F -  
Max Temperature 60 °F 68 °F 88 °F (1927)
Min Temperature 48 °F 43 °F 23 °F (1936)
Degree Days  
Heating Degree Days 11    
Growing Degree Days 4 (Base 50)    
Moisture  
Dew Point 49 °F    
Average Humidity 89    
Maximum Humidity 96    
Minimum Humidity 70    
Precipitation  
Precipitation 0.00 in - - ()
Sea Level Pressure  
Sea Level Pressure 29.81 in    
Wind  
Wind Speed 9 mph (NNW)    
Max Wind Speed 14 mph    
Max Gust Speed -    
Visibility 3 miles    
Events Fog    
Averages and records for this station are not official NWS values.
T = Trace of Precipitation, MM = Missing Value Source: NWS Daily Summary

Daily Weather History Graph

Daily Weather History Graph

Search for Another Location

Airport or City:

Trip Planner

Search our weather history database for the weather conditions in past years. The results will help you decide how hot, cold, wet, or windy it might be!

Date:

Astronomy

Oct. 22, 2012 Rise Set
Actual Time 7:55 AM CDT 6:52 PM CDT
Civil Twilight 7:28 AM CDT 7:19 PM CDT
Nautical Twilight 6:58 AM CDT 7:49 PM CDT
Astronomical Twilight 6:27 AM CDT 8:20 PM CDT
Moon 2:54 PM CDT (10/22) 12:51 AM CDT (10/22)
Length of Visible Light 11h 50m
Length of Day
10h 56m
First Quarter, 56% of the Moon is Illuminated
Oct 22
First Quarter
Oct 29
Full
Nov 6
Last Quarter
Nov 13
New
Nov 20
First Quarter

Hourly Weather History & Observations

Time (CDT) Temp. Dew Point Humidity Pressure Visibility Wind Dir Wind Speed Gust Speed Precip Events Conditions
12:52 AM 51.1 °F 48.0 °F 89% 29.68 in 6.0 mi NNW 6.9 mph - N/A   Clear
1:52 AM 51.1 °F 48.0 °F 89% 29.67 in 6.0 mi NNW 10.4 mph - N/A   Clear
2:52 AM 52.0 °F 50.0 °F 93% 29.68 in 4.0 mi NNW 8.1 mph - N/A   Clear
3:52 AM 52.0 °F 50.0 °F 93% 29.68 in 4.0 mi NNW 9.2 mph - N/A   Clear
4:07 AM 51.8 °F 50.0 °F 94% 29.75 in 4.0 mi North 10.4 mph - N/A   Scattered Clouds
4:15 AM 51.8 °F 50.0 °F 94% 29.75 in 4.0 mi North 12.7 mph - N/A   Mostly Cloudy
4:52 AM 51.1 °F 48.9 °F 92% 29.69 in 6.0 mi North 8.1 mph - N/A   Overcast
5:36 AM 50.0 °F 48.2 °F 94% 29.76 in 2.5 mi North 11.5 mph - N/A   Overcast
5:39 AM 50.0 °F 48.2 °F 94% 29.75 in 1.2 mi North 13.8 mph - N/A   Overcast
5:49 AM 50.0 °F 48.2 °F 94% 29.76 in 0.8 mi North 12.7 mph - N/A   Overcast
5:52 AM 50.0 °F 48.2 °F 94% 29.76 in 1.0 mi North 13.8 mph - N/A   Overcast
6:16 AM 50.0 °F 48.2 °F 94% 29.78 in 2.5 mi North 11.5 mph - N/A   Overcast
6:28 AM 50.0 °F 48.2 °F 94% 29.80 in 1.2 mi North 11.5 mph - N/A   Overcast
6:52 AM 50.0 °F 48.2 °F 94% 29.81 in 0.2 mi North 10.4 mph - N/A Fog Fog
7:32 AM 50.0 °F 48.2 °F 94% 29.83 in 0.5 mi NNW 10.4 mph - N/A Fog Fog
7:46 AM 50.0 °F 48.2 °F 94% 29.83 in 1.5 mi NNW 8.1 mph - N/A   Overcast
7:50 AM 50.0 °F 48.2 °F 94% 29.83 in 3.0 mi NNW 6.9 mph - N/A   Overcast
7:52 AM 50.0 °F 48.2 °F 94% 29.84 in 3.0 mi NNW 6.9 mph - N/A   Overcast
7:59 AM 50.0 °F 48.2 °F 94% 29.83 in 1.8 mi NNW 9.2 mph - N/A   Overcast
8:07 AM 50.0 °F 48.2 °F 94% 29.82 in 0.8 mi NNW 11.5 mph - N/A   Overcast
8:52 AM 50.0 °F 48.0 °F 93% 29.83 in 0.8 mi North 12.7 mph - N/A   Overcast
9:05 AM 50.0 °F 48.2 °F 94% 29.86 in 0.2 mi NNW 9.2 mph - N/A Fog Fog
9:42 AM 50.0 °F 48.2 °F 94% 29.88 in 0.5 mi NNW 10.4 mph - N/A Fog Fog
9:52 AM 50.0 °F 48.9 °F 96% 29.86 in 0.5 mi North 12.7 mph - N/A Fog Fog
10:10 AM 50.0 °F 48.2 °F 94% 29.87 in 1.5 mi NNW 11.5 mph - N/A   Overcast
10:15 AM 50.0 °F 48.2 °F 94% 29.87 in 3.0 mi NNW 10.4 mph - N/A   Overcast
10:31 AM 50.0 °F 48.2 °F 94% 29.89 in 2.5 mi NNW 8.1 mph - N/A   Overcast
10:52 AM 50.0 °F 48.9 °F 96% 29.88 in 3.0 mi NNW 6.9 mph - N/A   Overcast
11:17 AM 51.8 °F 48.2 °F 88% 29.90 in 4.0 mi NNW 8.1 mph - N/A   Overcast
11:52 AM 52.0 °F 48.0 °F 86% 29.88 in 5.0 mi NNW 8.1 mph - N/A   Overcast
12:52 PM 54.0 °F 48.0 °F 80% 29.87 in 5.0 mi NNW 9.2 mph - N/A   Haze
1:52 PM 53.1 °F 48.0 °F 83% 29.88 in 5.0 mi South 3.5 mph - N/A   Haze
2:52 PM 55.4 °F 48.2 °F 77% 29.86 in 6.0 mi Calm Calm - N/A   Haze
3:02 PM 55.4 °F 48.2 °F 77% 29.86 in 6.0 mi Calm Calm - N/A   Haze
3:52 PM 57.0 °F 50.0 °F 77% 29.81 in 6.0 mi SSW 3.5 mph - N/A   Haze
4:52 PM 57.9 °F 51.1 °F 78% 29.79 in 6.0 mi Calm Calm - N/A   Haze
5:52 PM 59.0 °F 51.8 °F 77% 29.82 in 6.0 mi Calm Calm - N/A   Haze
6:52 PM 55.0 °F 50.0 °F 83% 29.80 in 6.0 mi South 3.5 mph - N/A   Haze
8:52 PM 48.9 °F 46.9 °F 93% 29.81 in 4.0 mi ESE 4.6 mph - N/A   Clear
9:52 PM 50.0 °F 48.0 °F 93% 29.79 in 5.0 mi ESE 4.6 mph - N/A   Clear
11:52 PM 48.9 °F 46.9 °F 93% 29.76 in 4.0 mi East 6.9 mph - N/A   Clear